When you browse on this site, cookies collect data to enhance your experience and personalize the content and advertising you see.
Visit our Privacy Policy to learn more. By continuing to use the site, you agree to this use of cookies and data.
  • In Austria
  • List of Countries
  • For 7 days
  • Water Temperature
  • Satellite Maps
  • Weather Map
  • News
  • Weather Widgets
  • user-avatar
    Login

    Hourly Weather Copiague

    Today, 21 April, Sunday

    Time Temperature Precipitation Wind Pressure Humidity
    00:00 +14°C° 0 mm 4 mps 759 mmHg 81%
    01:00 +14°C° 0 mm 3 mps 759 mmHg 81%
    02:00 +14°C° 0 mm 3 mps 759 mmHg 80%
    03:00 +14°C° 0 mm 3 mps 759 mmHg 79%
    04:00 +13°C° 0 mm 3 mps 759 mmHg 78%
    05:00 +14°C° 0.1 mm 3 mps 759 mmHg 78%
    06:00 +14°C° 0.1 mm 4 mps 760 mmHg 78%
    07:00 +14°C° 0.1 mm 4 mps 760 mmHg 78%
    08:00 +15°C° 0 mm 4 mps 760 mmHg 74%
    09:00 +17°C° 0 mm 4 mps 760 mmHg 70%
    10:00 +18°C° 0 mm 4 mps 760 mmHg 65%
    11:00 +18°C° 0 mm 4 mps 760 mmHg 60%
    12:00 +19°C° 0 mm 5 mps 761 mmHg 55%
    13:00 +20°C° 0 mm 5 mps 761 mmHg 50%
    14:00 +19°C° 0 mm 5 mps 761 mmHg 51%
    15:00 +17°C° 0 mm 6 mps 761 mmHg 52%
    16:00 +16°C° 0 mm 6 mps 761 mmHg 53%
    17:00 +16°C° 0 mm 6 mps 761 mmHg 55%
    18:00 +15°C° 0 mm 5 mps 761 mmHg 57%
    19:00 +14°C° 0 mm 5 mps 762 mmHg 59%
    20:00 +14°C° 0 mm 4 mps 762 mmHg 61%
    21:00 +14°C° 0 mm 4 mps 762 mmHg 63%
    22:00 +13°C° 0 mm 3 mps 763 mmHg 65%
    23:00 +13°C° 0 mm 3 mps 763 mmHg 67%

    Tomorrow, 22 April, Monday

    Time Temperature Precipitation Wind Pressure Humidity
    00:00 +14°C° 0 mm 2 mps 762 mmHg 69%
    01:00 +14°C° 0 mm 2 mps 762 mmHg 71%
    02:00 +14°C° 0 mm 2 mps 762 mmHg 71%
    03:00 +13°C° 0 mm 1 mps 762 mmHg 72%
    04:00 +13°C° 0 mm 1 mps 762 mmHg 73%
    05:00 +14°C° 0 mm 1 mps 762 mmHg 70%
    06:00 +14°C° 0 mm 2 mps 762 mmHg 67%
    07:00 +14°C° 0 mm 2 mps 763 mmHg 64%
    08:00 +16°C° 0 mm 1 mps 763 mmHg 60%
    09:00 +18°C° 0 mm 1 mps 763 mmHg 55%
    10:00 +19°C° 0 mm 1 mps 763 mmHg 50%
    11:00 +21°C° 0 mm 1 mps 762 mmHg 48%
    12:00 +22°C° 0 mm 1 mps 762 mmHg 45%
    13:00 +23°C° 0 mm 2 mps 762 mmHg 43%
    14:00 +23°C° 0 mm 2 mps 761 mmHg 44%
    15:00 +22°C° 0 mm 3 mps 761 mmHg 45%
    16:00 +22°C° 0 mm 3 mps 760 mmHg 46%
    17:00 +21°C° 0 mm 3 mps 760 mmHg 51%
    18:00 +20°C° 0 mm 3 mps 761 mmHg 55%
    19:00 +19°C° 0 mm 3 mps 761 mmHg 59%
    20:00 +18°C° 0 mm 3 mps 761 mmHg 61%
    21:00 +18°C° 0 mm 2 mps 761 mmHg 64%
    22:00 +18°C° 0 mm 2 mps 762 mmHg 67%
    23:00 +17°C° 0 mm 2 mps 761 mmHg 69%

    Day after tomorrow, 23 April, Tuesday

    Time Temperature Precipitation Wind Pressure Humidity
    00:00 +17°C° 0 mm 3 mps 761 mmHg 71%
    01:00 +16°C° 0 mm 3 mps 761 mmHg 73%
    02:00 +16°C° 0 mm 3 mps 761 mmHg 74%
    03:00 +16°C° 0 mm 3 mps 761 mmHg 75%
    04:00 +14°C° 0 mm 3 mps 761 mmHg 76%
    05:00 +15°C° 0 mm 2 mps 762 mmHg 75%
    06:00 +16°C° 0 mm 2 mps 762 mmHg 73%
    07:00 +16°C° 0 mm 2 mps 762 mmHg 72%
    08:00 +18°C° 0 mm 2 mps 762 mmHg 66%
    09:00 +20°C° 0 mm 1 mps 762 mmHg 60%
    10:00 +22°C° 0 mm 1 mps 762 mmHg 53%
    11:00 +21°C° 0 mm 2 mps 762 mmHg 52%
    12:00 +21°C° 0 mm 3 mps 761 mmHg 50%
    13:00 +22°C° 0 mm 4 mps 761 mmHg 49%
    14:00 +21°C° 0 mm 5 mps 760 mmHg 51%
    15:00 +20°C° 0 mm 5 mps 760 mmHg 53%
    16:00 +20°C° 0 mm 6 mps 759 mmHg 55%
    17:00 +19°C° 0 mm 6 mps 759 mmHg 60%
    18:00 +17°C° 0 mm 6 mps 758 mmHg 65%
    19:00 +16°C° 0 mm 7 mps 758 mmHg 70%
    20:00 +16°C° 0.4 mm 7 mps 758 mmHg 70%
    21:00 +16°C° 0.4 mm 7 mps 757 mmHg 70%
    22:00 +16°C° 0.4 mm 7 mps 757 mmHg 71%
    23:00 +16°C° 1.2 mm 7 mps 757 mmHg 70%

    24 April, Wednesday

    Time Temperature Precipitation Wind Pressure Humidity
    00:00 +16°C° 1.2 mm 7 mps 756 mmHg 70%
    01:00 +16°C° 1.2 mm 7 mps 755 mmHg 70%
    02:00 +16°C° 0.4 mm 7 mps 755 mmHg 71%
    03:00 +17°C° 0.4 mm 6 mps 755 mmHg 72%
    04:00 +17°C° 0.4 mm 6 mps 754 mmHg 73%
    05:00 +16°C° 0 mm 6 mps 755 mmHg 69%
    06:00 +16°C° 0 mm 6 mps 755 mmHg 65%
    07:00 +15°C° 0 mm 6 mps 756 mmHg 61%
    08:00 +15°C° 0 mm 6 mps 756 mmHg 55%
    09:00 +15°C° 0 mm 6 mps 756 mmHg 50%
    10:00 +15°C° 0 mm 5 mps 756 mmHg 44%
    11:00 +16°C° 0 mm 5 mps 756 mmHg 38%
    12:00 +19°C° 0 mm 5 mps 756 mmHg 33%
    13:00 +20°C° 0 mm 5 mps 756 mmHg 27%
    14:00 +21°C° 0 mm 6 mps 756 mmHg 27%
    15:00 +21°C° 0 mm 6 mps 756 mmHg 27%
    16:00 +21°C° 0 mm 6 mps 756 mmHg 26%
    17:00 +20°C° 0 mm 6 mps 757 mmHg 30%
    18:00 +19°C° 0 mm 6 mps 757 mmHg 33%
    19:00 +17°C° 0 mm 6 mps 758 mmHg 37%
    20:00 +16°C° 0 mm 6 mps 759 mmHg 39%
    21:00 +14°C° 0 mm 6 mps 759 mmHg 42%
    22:00 +13°C° 0 mm 6 mps 760 mmHg 45%
    23:00 +12°C° 0 mm 5 mps 760 mmHg 47%

    25 April, Thursday

    Time Temperature Precipitation Wind Pressure Humidity
    00:00 +12°C° 0 mm 5 mps 760 mmHg 48%
    01:00 +10°C° 0 mm 5 mps 760 mmHg 50%
    02:00 +11°C° 0 mm 4 mps 760 mmHg 51%
    03:00 +10°C° 0 mm 4 mps 760 mmHg 52%
    04:00 +10°C° 0 mm 4 mps 761 mmHg 53%
    05:00 +10°C° 0 mm 3 mps 761 mmHg 51%
    06:00 +10°C° 0 mm 3 mps 761 mmHg 50%
    07:00 +10°C° 0 mm 3 mps 762 mmHg 49%
    08:00 +13°C° 0 mm 2 mps 762 mmHg 43%
    09:00 +14°C° 0 mm 2 mps 762 mmHg 38%
    10:00 +15°C° 0 mm 2 mps 762 mmHg 33%
    11:00 +16°C° 0 mm 2 mps 762 mmHg 29%
    12:00 +18°C° 0 mm 2 mps 761 mmHg 26%
    13:00 +19°C° 0 mm 2 mps 761 mmHg 23%
    14:00 +19°C° 0 mm 3 mps 761 mmHg 24%
    15:00 +18°C° 0 mm 3 mps 760 mmHg 25%
    16:00 +18°C° 0 mm 4 mps 760 mmHg 27%
    17:00 +17°C° 0 mm 4 mps 760 mmHg 35%
    18:00 +15°C° 0 mm 5 mps 761 mmHg 43%
    19:00 +14°C° 0 mm 5 mps 761 mmHg 51%
    20:00 +14°C° 0 mm 5 mps 761 mmHg 52%
    21:00 +14°C° 0 mm 4 mps 761 mmHg 54%
    22:00 +14°C° 0 mm 3 mps 762 mmHg 55%
    23:00 +14°C° 0 mm 3 mps 761 mmHg 54%

    26 April, Friday

    Time Temperature Precipitation Wind Pressure Humidity
    00:00 +14°C° 0 mm 3 mps 761 mmHg 53%
    01:00 +14°C° 0 mm 2 mps 761 mmHg 52%
    02:00 +14°C° 0 mm 2 mps 761 mmHg 53%
    03:00 +14°C° 0 mm 2 mps 760 mmHg 54%
    04:00 +13°C° 0 mm 2 mps 760 mmHg 55%
    05:00 +14°C° 0 mm 2 mps 760 mmHg 55%
    06:00 +14°C° 0 mm 2 mps 760 mmHg 55%
    07:00 +14°C° 0 mm 2 mps 760 mmHg 55%
    08:00 +15°C° 0 mm 2 mps 760 mmHg 53%
    09:00 +16°C° 0 mm 2 mps 760 mmHg 51%
    10:00 +16°C° 0 mm 2 mps 760 mmHg 48%
    11:00 +15°C° 1.4 mm 2 mps 759 mmHg 55%
    12:00 +14°C° 1.4 mm 2 mps 759 mmHg 62%
    13:00 +13°C° 1.4 mm 2 mps 759 mmHg 69%
    14:00 +13°C° 0.9 mm 2 mps 759 mmHg 68%
    15:00 +13°C° 0.9 mm 2 mps 758 mmHg 68%
    16:00 +13°C° 0.9 mm 2 mps 758 mmHg 67%
    17:00 +13°C° 0 mm 2 mps 758 mmHg 67%
    18:00 +13°C° 0 mm 2 mps 759 mmHg 66%
    19:00 +13°C° 0 mm 2 mps 759 mmHg 66%
    20:00 +13°C° 0 mm 1 mps 759 mmHg 67%
    21:00 +12°C° 0 mm 1 mps 759 mmHg 68%
    22:00 +12°C° 0 mm 1 mps 760 mmHg 70%
    23:00 +12°C° 0 mm 1 mps 759 mmHg 69%
    Show more